sat.trackr.live / text

‹ back to catalog

STARLINK-2114

NORAD 47393 · 2021-005AW

PAYLOAD ACTIVE UNKNOWN

§ Identity

Operator
Country
US
Launch date
2021-01-20
Launch site
AFETR
Launch vehicle
Mass (kg)
RCS (m²)

Purposes: comms

External: N2YO · Heavens-Above · Gunter

§ Orbital elements

Epoch: 2026-05-25T06:00:02.000160Z

Period
90.49 min
Inclination
53.0330°
Eccentricity
0.0006264
Mean motion
15.91373699 rev/d
Perigee alt
294.3 km
Apogee alt
302.6 km
Semi-major
6,676.6 km
B*
1.0591e-3
RAAN
321.5515°
Arg perigee
257.7259°
Mean anomaly
257.2166°
Rev number
585

§ Raw data

STARLINK-21141 47393U 21005AW  26145.25002315  .00345729  56049-4  10591-2 0  99962 47393  53.0330 321.5515 0006264 257.7259 257.2166 15.91373699  5859

JSON: /api/v1/satellites/47393 · /tle

For live sub-satellite position, see the globe view (requires WebGL).

§ Visibility from observer

Set your observer location to see the next 7 days of passes ≥ 10°. The values pass through the URL so the page stays shareable.

No JS? Fill the form by hand. The geolocation button needs JavaScript.